Temperature
17 18 18 18 15 12 14 15 15 16 18 20 21 21 20 20 20 21 21 21 21 21 19 17 17 17 17 17 16 16 16 15 15 15 15 15 15 15 16 15 14 14 14 14 14 14 13 13 13
17 17 18 17 13 13 14 14 15 17 19 20 21 21 21 21 21 21 21 21 21 20 19 18 18 18 17 17 17 16 16 15 15 15 15 15 15 16 16 15 14 14 14 14 14 13 13 14 14
17 17 17 13 12 13 15 15 15 17 19 20 21 21 21 21 22 22 21 21 20 20 20 19 18 18 18 18 18 17 16 15 15 15 15 15 15 16 16 15 15 14 14 14 14 14 14 14 14
16 16 15 12 13 13 14 16 16 16 19 20 20 20 21 21 21 22 21 21 20 20 19 19 19 18 18 18 18 18 17 16 15 15 15 15 16 16 16 16 15 15 15 14 14 14 14 14 14
16 16 12 12 13 13 13 15 16 16 17 19 20 19 21 21 21 21 21 21 20 19 19 19 18 18 18 19 19 18 17 16 16 15 15 15 16 16 16 16 15 15 15 15 14 14 14 14 14
15 12 11 12 13 13 13 16 17 17 17 19 20 19 21 22 21 21 21 20 19 19 18 18 18 18 18 19 19 18 17 16 16 16 15 15 15 16 15 15 15 15 15 15 14 14 14 14 14
13 10 11 12 13 13 15 17 17 17 17 19 20 19 21 21 21 21 20 19 19 18 18 18 18 18 18 18 19 18 18 16 16 16 15 15 15 15 15 15 15 15 15 14 14 14 14 14 13
14 10 11 11 12 14 15 17 18 18 18 19 20 19 21 21 21 20 19 19 18 18 18 18 18 18 18 18 18 18 18 17 16 16 15 15 15 14 15 15 15 15 14 14 13 13 13 13 13
13 10 10 11 12 14 15 16 18 18 19 19 19 20 20 21 20 20 19 18 17 17 17 17 18 18 18 18 18 18 18 17 16 16 15 15 15 14 14 14 14 14 14 13 13 13 13 13 13
12 9 10 12 13 14 15 16 17 17 17 18 19 19 20 20 20 20 19 18 18 18 17 17 18 18 18 18 18 18 18 17 17 16 16 15 15 14 14 14 14 14 13 13 13 13 13 13 13
10 10 11 13 14 15 15 16 16 16 16 17 17 17 18 19 19 19 19 19 19 18 18 18 17 17 17 18 18 18 18 18 17 17 16 15 15 14 14 13 13 13 13 13 13 13 13 13 13
10 11 12 14 15 15 15 15 15 16 17 17 17 17 17 17 18 18 19 18 18 18 18 18 17 17 17 17 17 17 18 18 18 17 16 16 15 14 14 14 13 13 13 13 13 12 12 12 13
10 12 13 14 14 14 14 14 14 15 17 17 17 17 17 17 17 17 17 17 17 18 18 18 17 17 17 17 17 16 17 17 17 17 17 16 15 15 14 14 13 13 13 13 13 12 12 12 12
11 12 13 13 14 14 14 14 13 15 16 16 17 17 17 17 17 17 17 17 18 18 18 18 17 17 17 17 17 17 16 16 17 17 17 16 16 15 14 14 13 13 13 12 12 12 12 12 12
12 11 12 12 13 13 13 12 11 15 16 16 16 17 17 18 18 18 18 17 18 18 18 18 18 17 17 17 17 17 16 16 16 16 16 16 15 15 14 14 13 13 13 12 12 12 12 12 12
11 11 11 12 12 13 13 11 12 15 15 15 16 16 17 17 18 18 18 18 18 18 18 18 17 17 17 17 17 17 17 17 16 16 16 15 15 15 14 14 13 13 12 12 12 11 11 11 12
10 9 10 11 12 12 11 10 12 14 13 13 15 15 16 16 17 18 18 18 18 18 18 18 18 18 18 18 17 17 17 17 17 16 16 15 15 14 14 13 13 12 12 12 11 11 11 11 11
8 9 9 10 11 11 10 9 10 13 12 12 14 15 15 16 17 17 17 17 17 17 18 18 18 18 18 18 18 17 17 17 16 16 16 15 15 15 14 13 13 12 12 11 11 11 11 11 11
9 9 9 10 10 10 10 9 10 11 11 11 13 14 15 16 16 17 17 17 17 17 17 17 17 17 18 18 17 17 17 17 17 17 16 16 15 15 14 14 13 12 12 12 11 11 11 11 11
9 9 9 9 9 10 8 8 9 9 10 12 12 13 14 15 16 16 16 16 16 17 17 17 17 17 17 17 18 18 18 18 17 17 17 16 16 15 15 14 14 13 12 12 11 11 11 11 11
9 9 9 9 9 8 7 9 9 9 9 10 11 11 12 13 14 15 15 16 16 16 17 17 17 17 17 17 17 16 16 16 16 16 16 16 16 16 15 15 14 14 13 12 12 11 11 11 11
9 9 9 9 8 7 7 7 8 8 7 8 10 10 11 12 13 14 15 15 15 16 16 16 16 16 16 16 16 16 16 15 16 16 16 16 16 16 16 15 15 14 13 13 12 12 11 11 11
8 8 8 7 7 6 6 7 8 7 9 9 9 9 10 11 12 13 13 14 14 15 15 15 16 16 16 16 16 16 16 16 16 16 16 16 16 16 16 15 15 14 14 13 13 12 11 11 11
7 7 6 5 5 6 6 6 7 7 9 8 8 9 10 11 12 12 13 13 13 14 14 14 15 15 15 15 15 16 16 16 16 15 15 15 15 15 15 15 15 15 14 14 13 12 12 11 11
8 7 6 7 5 5 5 5 6 7 7 7 7 9 10 11 12 12 12 12 13 13 13 13 14 14 14 15 15 15 15 15 15 15 15 15 15 15 15 15 15 15 14 14 13 12 11 11 11
7 7 7 7 7 5 5 4 6 7 7 9 9 10 11 11 11 11 11 11 11 12 12 12 13 13 14 14 14 14 15 14 15 15 15 15 15 15 15 15 15 15 14 13 12 11 11 10 10
6 6 6 4 4 4 5 5 5 8 8 8 9 10 10 11 10 10 10 10 10 11 11 11 12 12 13 13 13 14 14 14 14 14 14 14 14 14 14 14 14 14 14 13 12 11 10 9 9
7 5 4 4 5 6 6 5 6 8 9 8 7 9 10 10 10 9 9 9 9 9 10 10 11 11 11 12 12 13 13 13 13 13 13 13 13 13 13 13 13 13 13 12 11 10 9 8 7
6 5 4 3 4 5 6 8 7 7 8 7 7 9 10 9 9 8 8 8 8 9 9 9 9 10 10 11 11 12 12 12 13 13 12 12 11 11 11 12 12 11 11 10 10 9 8 7 6
6 5 4 4 3 3 3 6 8 7 7 7 8 9 9 8 8 7 7 7 8 8 8 8 8 9 9 10 10 11 11 12 12 11 11 10 10 10 10 10 10 10 10 9 8 7 6 5 5
Wind_Speed
6 5 3 4 5 4 4 6 4 4 4 3 2 3 6 7 6 4 1 9 11 12 15 19 18 18 17 16 16 16 17 17 16 15 14 13 11 11 10 10 10 10 12 13 14 14 14 13 12
2 3 5 5 5 1 6 6 6 5 5 6 3 1 2 3 2 4 5 7 13 14 15 17 19 18 17 16 15 15 16 17 16 15 14 13 12 12 11 11 10 11 13 13 13 12 12 11 11
3 5 5 5 5 7 6 6 6 5 7 3 2 2 2 1 3 6 6 10 12 12 14 17 20 18 17 16 15 15 16 17 17 16 15 14 13 13 12 12 11 11 11 11 11 10 10 10 10
4 5 5 4 8 8 7 3 1 8 8 5 3 4 2 1 3 6 9 12 13 9 14 18 20 18 17 16 15 16 16 17 17 16 15 14 13 13 12 12 11 10 9 9 9 9 9 9 8
4 5 3 3 9 7 6 5 3 5 7 5 4 4 3 4 3 9 13 13 13 10 12 17 19 18 16 15 15 16 17 17 17 16 15 14 13 12 12 11 10 9 9 8 8 8 8 8 8
5 5 5 7 11 6 5 4 3 4 5 5 3 3 4 2 4 10 14 14 12 11 11 16 18 17 16 15 15 15 16 17 17 16 15 14 13 12 12 11 9 8 8 8 8 7 7 7 8
6 6 7 8 8 7 6 5 4 5 7 6 4 4 5 1 5 9 11 12 11 10 9 11 15 16 15 15 15 15 16 17 17 16 15 13 12 11 11 10 9 8 7 7 7 7 7 8 8
6 6 7 6 7 7 3 3 4 5 7 4 6 7 7 5 10 11 11 10 11 9 7 8 12 14 14 14 14 15 15 15 16 15 14 12 11 10 11 10 8 7 6 6 6 6 8 9 9
5 5 7 8 8 5 3 3 3 2 4 3 3 4 4 9 14 14 11 10 12 11 9 7 8 11 13 13 13 14 14 14 15 13 12 10 8 8 9 10 9 7 6 5 6 8 10 11 11
5 6 9 6 7 5 1 1 3 5 4 3 3 4 4 11 16 16 15 15 15 15 13 10 8 8 11 12 12 12 12 12 12 11 11 9 7 7 9 11 9 7 6 5 7 9 9 10 10
7 8 6 5 5 4 1 1 2 2 3 1 2 5 3 7 12 14 15 15 15 14 14 13 11 10 9 8 10 10 11 11 12 12 12 10 7 6 8 9 8 6 6 7 9 9 9 8 8
6 5 5 5 4 4 2 1 3 3 5 2 2 2 2 5 8 11 12 12 11 12 14 13 12 10 10 9 8 9 9 9 10 13 14 11 7 6 7 8 8 8 8 8 7 8 8 8 8
5 4 4 2 0 2 2 4 4 6 8 5 4 2 1 0 4 5 5 7 9 12 13 13 13 13 11 9 7 8 9 10 12 13 14 14 9 6 7 7 8 9 9 9 8 8 8 7 7
7 4 2 2 2 2 4 6 5 9 7 5 5 6 5 5 5 5 6 8 11 13 13 12 14 13 12 12 9 7 10 11 12 13 14 16 13 10 8 7 7 8 10 10 9 8 7 6 6
6 5 3 4 4 4 3 8 8 10 8 8 8 9 9 9 8 9 9 9 10 11 12 14 15 14 15 14 12 9 11 12 11 13 15 16 15 13 10 7 7 9 12 12 10 9 7 5 5
6 6 4 4 4 5 5 10 5 9 7 10 10 9 9 10 10 10 10 10 9 9 11 14 14 15 17 15 13 10 12 12 11 14 15 17 17 16 12 8 7 12 13 11 6 5 5 4 4
4 5 5 3 1 2 7 8 6 4 4 9 10 10 9 9 10 11 10 10 10 10 11 12 14 16 18 18 14 12 10 11 12 14 14 16 18 18 14 9 10 14 10 7 6 4 4 4 4
7 5 5 6 2 1 5 8 11 7 6 9 11 11 10 10 12 10 9 10 10 9 10 10 11 14 15 14 12 10 10 10 10 11 14 16 18 19 16 10 12 13 8 7 6 5 3 4 5
8 7 5 3 2 3 6 8 13 11 8 11 12 12 13 12 11 9 9 9 9 8 10 11 11 12 11 10 13 13 14 13 12 12 15 17 18 19 15 9 10 11 11 11 10 6 5 3 4
7 6 3 1 4 3 6 10 12 11 9 9 10 11 12 11 11 9 8 8 9 9 9 10 11 11 11 12 12 10 11 10 12 10 11 17 17 18 16 13 13 12 10 11 10 7 5 3 4
4 5 4 1 4 4 6 9 8 6 4 6 7 8 9 10 12 11 9 9 8 9 10 9 11 11 11 12 8 5 5 4 7 9 11 12 16 18 16 15 13 13 13 13 13 11 9 6 4
4 3 5 4 3 4 5 6 9 6 9 6 7 8 8 9 9 9 9 9 8 9 8 8 9 9 10 10 9 11 12 12 12 12 12 12 15 17 18 16 15 15 13 14 14 12 7 8 5
5 5 6 4 4 2 1 2 10 5 5 6 8 8 8 7 7 7 8 7 7 7 6 5 6 7 8 8 11 13 14 13 9 8 11 12 12 13 15 16 14 15 13 14 14 13 9 7 7
8 7 6 5 4 2 3 5 8 4 4 7 9 9 9 9 9 8 8 8 8 8 7 6 6 7 6 7 9 11 14 13 10 11 12 11 9 10 13 13 13 14 12 14 13 14 14 9 8
5 5 3 3 2 5 2 4 9 6 6 6 9 10 9 8 9 10 12 12 11 10 9 7 7 7 7 6 8 10 12 13 14 14 14 12 10 10 15 15 14 13 12 11 11 11 12 10 11
4 6 5 4 3 4 2 6 8 6 7 6 6 6 8 10 10 10 10 10 10 10 9 8 8 8 7 7 8 9 10 9 9 12 11 13 13 14 14 15 13 12 12 12 11 9 8 8 9
6 4 4 6 3 3 5 7 9 4 2 3 6 8 11 11 11 11 11 10 11 11 11 9 9 9 9 8 8 8 8 9 10 10 10 8 8 7 10 11 11 11 11 12 12 9 9 9 8
5 7 5 5 4 4 6 5 5 5 4 7 9 10 12 12 12 12 11 11 11 11 11 10 9 9 9 8 7 7 8 8 8 7 9 8 7 8 11 11 12 12 12 12 10 10 10 11 9
5 5 5 4 3 4 3 6 6 6 4 6 9 11 11 12 12 11 12 12 12 11 11 10 9 9 8 8 7 7 6 5 5 6 7 8 8 10 12 13 13 13 12 12 11 11 12 12 11
5 6 6 5 4 4 3 8 6 6 6 7 10 11 10 10 10 10 11 12 12 12 11 10 9 8 8 7 7 6 4 3 4 5 6 8 10 11 12 13 13 13 13 13 14 14 13 12 11
Wind_Direction
360 7 65 56 53 50 255 250 242 271 261 266 247 196 167 167 177 210 101 138 134 143 157 157 157 155 153 151 149 147 145 142 139 134 129 125 121 120 120 118 110 98 95 102 106 102 98 94 94
8 30 57 63 97 216 259 244 238 239 274 314 321 46 171 188 170 133 142 158 144 146 154 155 156 155 154 153 152 153 152 148 144 140 135 131 127 124 124 123 115 100 92 91 93 94 93 93 95
83 48 85 90 151 194 234 233 226 287 292 277 312 308 238 233 171 173 175 155 143 144 151 156 156 156 156 157 158 159 158 154 149 145 141 136 131 128 127 124 117 108 101 99 99 98 97 97 98
88 58 62 120 219 219 224 243 273 330 345 357 348 304 277 351 191 171 144 148 143 140 149 158 156 158 159 160 163 166 165 160 155 151 148 144 138 132 128 124 120 115 114 112 110 108 105 101 97
65 93 117 212 236 236 240 261 289 326 316 330 344 280 271 355 86 128 140 149 147 141 148 159 158 160 162 163 166 170 171 166 160 158 156 152 146 138 134 132 129 126 124 121 117 113 106 96 88
77 95 149 217 239 246 252 246 287 286 282 296 260 243 273 39 115 140 144 150 151 148 150 161 162 162 164 166 170 174 175 171 167 166 164 161 156 149 144 142 139 134 130 126 121 114 100 86 78
125 135 181 206 240 254 248 208 220 248 274 262 205 211 277 160 142 139 139 142 148 149 151 161 163 164 167 170 172 177 180 176 173 173 173 171 166 160 157 153 150 144 138 132 126 113 96 84 78
138 134 172 202 218 248 248 209 218 209 255 250 173 188 241 198 145 135 134 141 152 156 160 164 163 165 168 173 177 180 182 180 178 178 178 175 173 171 170 165 162 157 149 138 128 115 97 85 86
107 129 189 200 195 231 237 226 262 299 261 287 213 229 278 132 144 144 147 158 170 175 177 173 167 168 169 173 180 182 184 184 181 181 177 171 173 180 178 172 173 168 160 146 131 115 99 89 88
136 177 205 199 187 180 172 216 315 356 334 326 348 6 66 138 159 163 169 176 183 188 189 186 179 174 172 178 179 180 181 184 181 176 172 170 175 179 174 175 177 173 160 139 124 110 100 97 94
170 190 198 211 194 172 146 316 329 2 305 284 338 332 93 152 170 179 184 187 190 191 193 194 189 184 181 180 176 179 180 180 178 177 175 171 168 165 160 161 166 155 131 111 107 99 101 103 105
174 208 190 199 177 162 167 267 295 219 236 218 291 331 92 167 190 196 198 199 196 197 200 199 196 192 191 187 184 184 183 182 181 182 179 170 162 160 157 157 155 146 138 127 119 112 109 105 109
180 195 204 227 204 186 191 231 251 255 255 274 296 357 62 245 250 240 216 208 208 210 207 205 202 201 197 193 191 192 194 194 191 186 184 178 171 171 169 164 160 155 151 145 136 128 120 111 108
189 194 235 243 241 234 229 252 229 257 258 257 263 276 269 248 239 246 228 208 206 214 215 210 209 207 203 203 201 198 200 199 195 193 189 185 181 178 176 171 166 163 162 156 148 140 130 119 117
144 158 252 251 217 235 224 267 229 244 251 257 256 261 271 260 242 234 231 220 211 211 213 213 213 210 209 209 206 204 202 200 202 200 194 190 187 184 181 179 175 171 162 150 138 128 120 114 110
118 139 209 259 203 213 196 261 249 249 247 260 262 255 256 264 257 248 240 234 227 215 212 214 213 212 212 213 209 208 203 202 205 201 198 195 192 188 183 182 180 169 160 151 142 134 116 117 122
139 169 196 265 218 217 209 256 265 287 253 267 275 273 262 263 264 256 250 241 237 227 221 216 212 210 211 213 212 209 204 204 205 201 201 198 194 189 184 184 177 167 160 157 152 140 133 140 138
171 161 177 218 310 305 250 268 282 284 269 268 275 279 275 266 260 252 247 242 239 233 230 228 220 217 212 210 210 210 208 208 205 205 205 196 195 189 184 180 173 167 162 161 155 139 115 127 137
152 151 176 222 352 330 276 279 281 279 266 260 263 267 271 271 265 255 245 245 245 238 228 227 224 222 212 204 207 210 214 213 210 210 206 198 194 188 184 178 173 174 176 174 160 137 129 128 141
123 136 167 303 4 349 307 285 272 267 251 248 258 267 275 284 293 284 266 253 241 237 229 225 225 225 216 210 208 208 210 213 212 208 203 199 192 188 188 180 180 181 174 167 167 150 140 141 168
132 150 167 196 357 38 338 304 294 298 319 308 297 293 296 291 293 297 294 278 265 252 239 229 222 222 220 213 205 192 188 193 200 204 206 199 192 189 190 186 180 181 179 181 180 170 156 155 180
175 160 137 114 53 329 21 317 293 305 327 328 335 335 322 313 305 305 307 302 287 270 258 241 231 227 224 212 202 198 206 214 212 210 209 199 193 191 191 186 183 183 185 184 185 178 166 149 157
130 94 95 95 108 340 358 217 284 335 333 332 334 336 334 334 340 340 333 323 320 316 306 282 259 244 233 218 211 208 215 219 212 203 202 200 196 194 192 188 187 187 188 186 182 178 174 164 160
122 87 69 59 75 280 226 192 279 283 271 307 319 332 343 350 0 3 0 2 356 350 344 331 307 279 259 237 223 217 219 217 206 201 204 202 197 196 195 190 190 189 188 187 185 182 180 173 160
112 109 55 354 2 248 189 217 254 269 270 279 300 318 333 347 357 357 356 352 347 342 338 332 322 301 286 260 239 227 226 221 215 210 209 203 198 200 199 194 193 191 188 182 175 175 178 169 163
157 143 165 201 232 284 218 239 257 269 281 289 298 311 335 349 350 346 339 333 327 321 320 321 315 302 293 275 257 242 232 225 224 218 212 208 207 206 198 194 191 184 176 172 167 165 164 157 152
125 125 129 119 102 288 271 280 302 307 9 348 339 343 345 338 334 331 326 322 317 310 305 302 301 296 291 282 271 259 240 226 224 218 214 211 205 190 179 177 173 168 164 162 159 157 150 141 131
126 134 109 131 165 263 293 274 259 294 334 340 337 331 325 325 325 325 321 317 312 303 297 295 288 282 283 283 272 263 250 235 225 210 207 198 178 160 158 160 158 155 152 151 146 140 134 126 116
115 106 102 101 138 166 283 280 223 224 281 307 308 308 310 315 317 319 319 317 313 309 303 299 298 294 292 291 284 270 256 238 214 205 197 178 161 155 157 155 151 149 146 143 137 132 128 120 112
144 152 143 150 188 172 202 271 265 236 271 280 291 297 304 309 315 320 321 323 323 319 315 312 311 306 298 294 288 273 253 212 186 176 160 152 151 150 148 145 143 141 139 136 133 127 121 117 114
Height
1517 1518 1519 1521 1525 1536 1535 1526 1520 1515 1512 1509 1508 1507 1507 1509 1513 1515 1508 1507 1511 1513 1515 1519 1522 1525 1527 1530 1532 1534 1535 1536 1537 1538 1539 1539 1539 1539 1539 1539 1541 1542 1544 1545 1546 1547 1548 1549 1549
1516 1518 1520 1520 1531 1540 1535 1522 1518 1513 1510 1508 1507 1506 1506 1506 1506 1506 1505 1507 1511 1514 1516 1519 1522 1525 1528 1530 1532 1534 1535 1536 1537 1538 1539 1539 1539 1539 1540 1540 1542 1543 1545 1546 1547 1548 1549 1550 1550
1514 1516 1519 1522 1532 1535 1526 1516 1513 1511 1509 1508 1507 1506 1506 1506 1506 1506 1507 1509 1512 1514 1517 1520 1523 1525 1528 1530 1532 1534 1535 1536 1537 1538 1539 1540 1540 1540 1541 1542 1543 1544 1546 1547 1549 1550 1551 1551 1552
1513 1516 1518 1526 1527 1523 1517 1511 1511 1509 1508 1508 1508 1507 1506 1506 1506 1507 1508 1510 1512 1515 1518 1521 1523 1526 1528 1530 1532 1534 1535 1537 1538 1539 1540 1541 1541 1542 1542 1543 1544 1545 1547 1548 1550 1551 1552 1552 1553
1511 1514 1521 1526 1522 1516 1512 1510 1510 1510 1509 1509 1509 1508 1506 1507 1507 1508 1509 1511 1513 1515 1518 1521 1524 1527 1529 1531 1533 1534 1535 1537 1538 1540 1541 1542 1543 1543 1544 1545 1546 1547 1548 1549 1551 1552 1552 1553 1553
1509 1512 1525 1526 1517 1512 1510 1509 1509 1509 1508 1509 1509 1508 1506 1506 1507 1509 1510 1512 1514 1516 1518 1521 1524 1527 1529 1531 1533 1534 1536 1537 1539 1540 1542 1543 1544 1545 1546 1547 1547 1548 1549 1550 1552 1552 1553 1554 1554
1506 1512 1518 1518 1514 1512 1508 1507 1508 1507 1507 1508 1508 1508 1505 1506 1507 1509 1511 1513 1514 1516 1519 1521 1524 1527 1529 1531 1533 1534 1536 1537 1539 1541 1542 1544 1545 1546 1547 1548 1549 1550 1551 1552 1553 1553 1554 1554 1555
1503 1509 1514 1515 1513 1509 1505 1505 1505 1505 1504 1505 1506 1506 1504 1505 1506 1508 1510 1513 1514 1516 1519 1521 1524 1527 1529 1531 1533 1534 1536 1537 1539 1541 1543 1544 1546 1547 1548 1549 1550 1551 1552 1553 1553 1554 1554 1555 1555
1501 1510 1513 1510 1509 1506 1503 1504 1503 1503 1503 1503 1504 1504 1504 1505 1505 1507 1509 1512 1514 1516 1518 1520 1523 1526 1528 1530 1532 1534 1535 1537 1538 1540 1542 1544 1545 1547 1548 1549 1550 1551 1552 1553 1554 1554 1555 1555 1555
1499 1507 1505 1501 1502 1502 1502 1503 1503 1502 1502 1502 1502 1502 1502 1503 1504 1505 1507 1509 1511 1513 1516 1519 1522 1524 1527 1529 1531 1533 1534 1536 1537 1539 1541 1543 1545 1546 1548 1549 1550 1551 1552 1553 1554 1554 1555 1555 1555
1496 1500 1498 1498 1499 1500 1501 1502 1502 1502 1502 1502 1502 1502 1501 1502 1504 1505 1506 1508 1510 1513 1515 1517 1520 1523 1525 1527 1529 1531 1533 1534 1536 1538 1539 1541 1543 1545 1547 1548 1549 1550 1551 1552 1553 1554 1554 1555 1555
1495 1495 1495 1496 1497 1498 1500 1500 1501 1501 1502 1502 1502 1502 1502 1503 1504 1505 1507 1508 1511 1512 1514 1517 1519 1521 1523 1525 1527 1529 1530 1532 1534 1536 1537 1539 1541 1543 1545 1547 1548 1549 1550 1552 1552 1553 1554 1554 1554
1493 1493 1494 1495 1496 1497 1498 1499 1500 1499 1500 1501 1501 1503 1504 1504 1505 1506 1507 1508 1510 1511 1513 1515 1517 1519 1520 1522 1524 1525 1527 1530 1532 1533 1535 1536 1538 1540 1542 1544 1546 1547 1549 1550 1551 1552 1552 1553 1553
1490 1492 1493 1494 1495 1495 1496 1496 1498 1495 1497 1498 1499 1500 1502 1503 1504 1505 1506 1507 1508 1509 1511 1513 1515 1516 1518 1519 1521 1522 1524 1527 1529 1530 1532 1533 1535 1537 1539 1541 1543 1545 1546 1547 1549 1550 1550 1551 1551
1489 1492 1494 1493 1493 1494 1495 1495 1494 1493 1494 1494 1495 1496 1498 1499 1501 1503 1504 1505 1506 1507 1509 1510 1512 1513 1515 1516 1518 1519 1521 1523 1525 1526 1528 1530 1531 1533 1536 1538 1540 1542 1543 1545 1546 1547 1548 1548 1548
1489 1493 1497 1492 1491 1492 1498 1496 1491 1489 1490 1489 1490 1491 1493 1494 1496 1498 1500 1501 1502 1503 1505 1506 1508 1509 1510 1512 1513 1515 1517 1519 1521 1523 1524 1526 1528 1529 1531 1533 1536 1538 1540 1541 1543 1544 1545 1545 1546
1491 1497 1497 1494 1491 1491 1494 1493 1488 1487 1487 1487 1486 1486 1487 1488 1490 1492 1494 1496 1497 1499 1500 1501 1503 1504 1505 1507 1508 1510 1512 1514 1516 1518 1520 1521 1523 1525 1527 1529 1532 1534 1536 1538 1539 1541 1542 1542 1543
1493 1495 1495 1495 1491 1491 1492 1491 1486 1484 1485 1484 1482 1481 1481 1482 1484 1487 1488 1490 1491 1492 1493 1495 1497 1498 1500 1501 1502 1504 1506 1508 1510 1513 1515 1516 1518 1520 1522 1525 1527 1529 1531 1533 1535 1537 1538 1539 1540
1488 1492 1494 1493 1492 1492 1491 1490 1484 1480 1480 1479 1477 1477 1476 1476 1478 1480 1482 1483 1484 1485 1486 1487 1489 1491 1492 1493 1495 1496 1498 1500 1503 1506 1508 1511 1512 1515 1517 1519 1522 1524 1526 1528 1531 1533 1534 1535 1536
1487 1492 1494 1494 1493 1492 1493 1489 1480 1474 1474 1473 1473 1472 1472 1472 1472 1473 1475 1476 1476 1477 1479 1480 1481 1483 1485 1486 1487 1489 1491 1493 1496 1499 1501 1504 1506 1509 1511 1514 1516 1518 1520 1523 1525 1527 1529 1531 1532
1488 1491 1493 1494 1494 1496 1496 1486 1479 1471 1471 1470 1470 1470 1469 1469 1467 1467 1467 1467 1468 1469 1471 1472 1474 1476 1478 1479 1481 1482 1483 1485 1487 1490 1493 1496 1499 1501 1505 1507 1510 1512 1514 1516 1518 1521 1523 1525 1527
1488 1489 1492 1494 1498 1502 1501 1501 1483 1475 1473 1470 1470 1468 1467 1466 1464 1463 1462 1462 1462 1463 1463 1465 1467 1469 1471 1473 1473 1474 1475 1476 1478 1482 1485 1488 1491 1494 1497 1500 1503 1505 1508 1510 1512 1515 1517 1520 1521
1488 1490 1494 1498 1501 1506 1506 1505 1487 1479 1474 1472 1470 1468 1466 1465 1463 1461 1461 1460 1460 1460 1459 1460 1461 1462 1464 1465 1466 1467 1468 1470 1472 1475 1477 1480 1483 1486 1489 1492 1495 1498 1500 1503 1505 1508 1511 1513 1515
1489 1495 1501 1506 1507 1509 1505 1507 1492 1481 1476 1474 1470 1467 1465 1463 1462 1460 1460 1459 1458 1458 1457 1457 1457 1458 1458 1459 1460 1460 1461 1463 1465 1466 1469 1471 1473 1476 1480 1484 1487 1490 1493 1495 1498 1501 1504 1506 1509
1489 1496 1505 1505 1512 1511 1507 1508 1493 1478 1475 1474 1471 1467 1465 1463 1461 1459 1458 1456 1456 1455 1455 1454 1453 1453 1454 1454 1454 1454 1455 1456 1457 1459 1461 1463 1464 1467 1470 1474 1478 1481 1485 1488 1491 1494 1497 1500 1502
1489 1492 1501 1503 1504 1510 1508 1506 1487 1476 1473 1471 1469 1467 1465 1462 1461 1459 1457 1455 1453 1452 1451 1450 1449 1448 1449 1448 1448 1449 1449 1450 1451 1452 1454 1455 1456 1459 1462 1466 1469 1473 1477 1480 1484 1487 1491 1493 1496
1491 1496 1498 1509 1516 1514 1504 1498 1485 1472 1471 1470 1469 1467 1464 1462 1460 1458 1455 1452 1450 1447 1446 1444 1443 1442 1442 1442 1442 1442 1443 1443 1444 1445 1446 1447 1449 1451 1454 1457 1461 1465 1468 1472 1476 1480 1483 1487 1490
1489 1495 1504 1510 1509 1504 1500 1497 1488 1475 1472 1470 1468 1466 1463 1461 1458 1455 1452 1448 1445 1442 1440 1438 1437 1436 1436 1436 1436 1436 1436 1437 1437 1438 1438 1440 1441 1444 1446 1449 1453 1457 1461 1465 1469 1473 1477 1480 1483
1493 1497 1503 1511 1511 1512 1501 1488 1476 1475 1472 1471 1468 1466 1463 1460 1456 1452 1448 1444 1440 1437 1434 1431 1430 1429 1428 1429 1429 1429 1429 1430 1430 1431 1431 1433 1434 1436 1439 1442 1446 1450 1454 1459 1463 1467 1470 1474 1478
1489 1494 1501 1508 1514 1516 1517 1495 1470 1471 1470 1469 1467 1464 1461 1458 1453 1449 1444 1440 1436 1432 1429 1426 1424 1423 1422 1422 1422 1422 1422 1423 1424 1424 1425 1427 1429 1431 1434 1437 1441 1445 1449 1453 1457 1461 1465 1470 1474